QTR4B OTHH-HECA

Flight info

Callsign QTR4B
Flight time 2h 37m
Altitude 40000
Route TULUB B457 NARMI N697 HIL T540 ENABI L550 NOVPA N697 MENLI L677 CVO
Aircraft A359/H-SDE2E3GHIJ3J4J5LM1ORWXY/LB1D1

Departure

Time 2026-05-07 06:41
Airport Hamad International Airport (OTHH)

Arrival

Time 2026-05-07 09:18
Airport Cairo International Airport (HECA)
Time Latitude Longitude Altitude Speed Heading
2026-05-07 06:02 25.26528 51.61283 37 ft 0 kts 248°
2026-05-07 06:27 25.26523 51.61270 36 ft 2 kts 248°
2026-05-07 06:28 25.26533 51.61297 36 ft 4 kts 248°
2026-05-07 06:28 25.26543 51.61324 36 ft 4 kts 248°
2026-05-07 06:28 25.26551 51.61347 36 ft 4 kts 255°
2026-05-07 06:28 25.26552 51.61374 36 ft 4 kts 299°
2026-05-07 06:29 25.26535 51.61390 36 ft 4 kts 338°
2026-05-07 06:29 25.26510 51.61401 36 ft 3 kts 338°
2026-05-07 06:29 25.26522 51.61396 36 ft 4 kts 338°
2026-05-07 06:29 25.26551 51.61384 36 ft 4 kts 338°
2026-05-07 06:30 25.26579 51.61373 36 ft 4 kts 338°
2026-05-07 06:30 25.26607 51.61361 36 ft 4 kts 338°
2026-05-07 06:30 25.26635 51.61349 36 ft 4 kts 338°
2026-05-07 06:30 25.26639 51.61347 36 ft 0 kts 338°
2026-05-07 06:33 25.26658 51.61351 36 ft 4 kts 27°
2026-05-07 06:33 25.26669 51.61399 36 ft 9 kts 99°
2026-05-07 06:34 25.26626 51.61450 36 ft 10 kts 148°
2026-05-07 06:34 25.26558 51.61486 36 ft 12 kts 156°
2026-05-07 06:34 25.26516 51.61547 36 ft 10 kts 93°
2026-05-07 06:34 25.26535 51.61629 36 ft 12 kts 70°
2026-05-07 06:35 25.26569 51.61725 36 ft 14 kts 67°
2026-05-07 06:35 25.26604 51.61816 36 ft 11 kts 68°
2026-05-07 06:35 25.26600 51.61887 36 ft 9 kts 123°
2026-05-07 06:35 25.26569 51.61953 35 ft 11 kts 95°
2026-05-07 06:36 25.26548 51.62021 34 ft 10 kts 133°
2026-05-07 06:36 25.26483 51.62061 35 ft 12 kts 157°
2026-05-07 06:36 25.26404 51.62097 35 ft 13 kts 158°
2026-05-07 06:36 25.26314 51.62137 35 ft 15 kts 158°
2026-05-07 06:37 25.26213 51.62181 36 ft 16 kts 158°
2026-05-07 06:37 25.26103 51.62230 36 ft 18 kts 158°
2026-05-07 06:37 25.25983 51.62282 36 ft 19 kts 158°
2026-05-07 06:37 25.25852 51.62340 35 ft 21 kts 158°
2026-05-07 06:38 25.25725 51.62396 35 ft 19 kts 158°
2026-05-07 06:38 25.25617 51.62443 34 ft 15 kts 158°
2026-05-07 06:38 25.25539 51.62479 35 ft 8 kts 149°
2026-05-07 06:38 25.25516 51.62536 34 ft 1 kts 86°
2026-05-07 06:39 25.25516 51.62538 34 ft 2 kts 86°
2026-05-07 06:39 25.25534 51.62589 33 ft 11 kts 63°
2026-05-07 06:40 25.25561 51.62642 33 ft 5 kts 44°
2026-05-07 06:40 25.25608 51.62647 33 ft 10 kts 351°
2026-05-07 06:40 25.25639 51.62636 33 ft 0 kts 339°
2026-05-07 06:40 25.25640 51.62636 33 ft 3 kts 339°
2026-05-07 06:41 25.25866 51.62536 33 ft 71 kts 338°
2026-05-07 06:41 25.26534 51.62242 33 ft 133 kts 338°
2026-05-07 06:41 25.27569 51.61790 73 ft 182 kts 338°
2026-05-07 06:41 25.28714 51.61293 898 ft 172 kts 337°
2026-05-07 06:42 25.29861 51.60785 1481 ft 188 kts 337°
2026-05-07 06:42 25.31166 51.60206 1731 ft 218 kts 337°
2026-05-07 06:42 25.32662 51.59545 2015 ft 245 kts 338°
2026-05-07 06:42 25.34351 51.59062 2537 ft 258 kts
2026-05-07 06:43 25.36092 51.59562 3269 ft 263 kts 22°
2026-05-07 06:43 25.37813 51.60337 3783 ft 269 kts 20°
2026-05-07 06:43 25.39583 51.61017 3979 ft 270 kts 17°
2026-05-07 06:43 25.41390 51.61609 4003 ft 271 kts 15°
2026-05-07 06:44 25.43217 51.62148 4001 ft 272 kts 14°
2026-05-07 06:44 25.45052 51.62658 4000 ft 272 kts 13°
2026-05-07 06:44 25.46891 51.63153 4102 ft 273 kts 13°
2026-05-07 06:44 25.48736 51.63633 4137 ft 272 kts 12°
2026-05-07 06:45 25.50590 51.64083 4138 ft 273 kts 12°
2026-05-07 06:45 25.52441 51.64526 4137 ft 273 kts 12°
2026-05-07 06:45 25.54297 51.64973 4137 ft 273 kts 12°
2026-05-07 06:45 25.56152 51.65420 4137 ft 273 kts 12°
2026-05-07 06:46 25.58021 51.65756 4133 ft 273 kts
2026-05-07 06:46 25.59891 51.65516 4277 ft 272 kts 348°
2026-05-07 06:46 25.61750 51.65065 4767 ft 275 kts 347°
2026-05-07 06:46 25.63596 51.64608 5555 ft 276 kts 347°
2026-05-07 06:47 25.65503 51.64141 6346 ft 278 kts 347°
2026-05-07 06:47 25.67378 51.63685 7073 ft 282 kts 347°
2026-05-07 06:47 25.69307 51.63217 7808 ft 285 kts 347°
2026-05-07 06:47 25.71256 51.62745 8539 ft 289 kts 347°
2026-05-07 06:48 25.73201 51.62140 9247 ft 292 kts 339°
2026-05-07 06:48 25.75097 51.61296 9940 ft 295 kts 336°
2026-05-07 06:48 25.77008 51.60396 10490 ft 305 kts 336°
2026-05-07 06:48 25.79011 51.59451 10771 ft 321 kts 336°
2026-05-07 06:49 25.81122 51.58458 11034 ft 338 kts 336°
2026-05-07 06:49 25.83313 51.57371 11265 ft 352 kts 332°
2026-05-07 06:49 25.85239 51.55648 11527 ft 362 kts 308°
2026-05-07 06:49 25.86586 51.53279 11962 ft 366 kts 298°
2026-05-07 06:50 25.87784 51.50769 12415 ft 369 kts 297°
2026-05-07 06:50 25.88984 51.48233 12857 ft 373 kts 297°
2026-05-07 06:50 25.90201 51.45679 13287 ft 376 kts 297°
2026-05-07 06:50 25.91433 51.43113 13690 ft 378 kts 297°
2026-05-07 06:51 25.92679 51.40526 14081 ft 381 kts 297°
2026-05-07 06:51 25.93933 51.37924 14453 ft 384 kts 298°
2026-05-07 06:51 25.95199 51.35300 14808 ft 386 kts 298°
2026-05-07 06:51 25.96470 51.32666 15146 ft 388 kts 298°
2026-05-07 06:52 25.97751 51.30013 15467 ft 391 kts 298°
2026-05-07 06:52 25.99018 51.27328 15773 ft 393 kts 297°
2026-05-07 06:52 26.00276 51.24626 16065 ft 395 kts 297°
2026-05-07 06:52 26.01542 51.21906 16351 ft 397 kts 297°
2026-05-07 06:53 26.02817 51.19172 16640 ft 399 kts 297°
2026-05-07 06:53 26.04097 51.16430 16929 ft 401 kts 297°
2026-05-07 06:53 26.05387 51.13667 17218 ft 403 kts 297°
2026-05-07 06:53 26.06682 51.10893 17507 ft 405 kts 297°
2026-05-07 06:54 26.07984 51.08102 17793 ft 407 kts 297°
2026-05-07 06:54 26.09290 51.05301 18080 ft 409 kts 297°
2026-05-07 06:54 26.10606 51.02478 18368 ft 411 kts 297°
2026-05-07 06:54 26.11920 50.99647 18652 ft 413 kts 296°
2026-05-07 06:55 26.13170 50.96756 18937 ft 415 kts 294°
2026-05-07 06:55 26.14365 50.93820 19221 ft 417 kts 294°
2026-05-07 06:55 26.15543 50.90865 19499 ft 420 kts 293°
2026-05-07 06:55 26.16735 50.87883 19775 ft 422 kts 294°
2026-05-07 06:56 26.17934 50.84898 20047 ft 424 kts 294°
2026-05-07 06:56 26.19148 50.81899 20317 ft 426 kts 294°
2026-05-07 06:56 26.20374 50.78888 20582 ft 428 kts 294°
2026-05-07 06:56 26.21610 50.75863 20846 ft 430 kts 294°
2026-05-07 06:57 26.22854 50.72826 21104 ft 432 kts 294°
2026-05-07 06:57 26.24104 50.69773 21357 ft 434 kts 294°
2026-05-07 06:57 26.25266 50.66672 21593 ft 436 kts 288°
2026-05-07 06:57 26.26027 50.63402 21839 ft 437 kts 281°
2026-05-07 06:58 26.26596 50.60065 22079 ft 439 kts 279°
2026-05-07 06:58 26.27073 50.56697 22317 ft 441 kts 278°
2026-05-07 06:58 26.27498 50.53358 22545 ft 443 kts 277°
2026-05-07 06:58 26.27920 50.49907 22775 ft 445 kts 277°
2026-05-07 06:59 26.28336 50.46488 22998 ft 446 kts 277°
2026-05-07 06:59 26.28754 50.43106 23213 ft 448 kts 277°
2026-05-07 06:59 26.29187 50.39652 23429 ft 450 kts 277°
2026-05-07 06:59 26.29628 50.36193 23640 ft 452 kts 278°
2026-05-07 07:00 26.30289 50.32771 23835 ft 454 kts 286°
2026-05-07 07:00 26.31292 50.29431 24038 ft 455 kts 289°
2026-05-07 07:00 26.32420 50.26074 24241 ft 457 kts 291°
2026-05-07 07:00 26.33580 50.22815 24440 ft 459 kts 291°
2026-05-07 07:01 26.34783 50.19515 24642 ft 461 kts 292°
2026-05-07 07:01 26.35998 50.16202 24841 ft 462 kts 292°
2026-05-07 07:01 26.37212 50.12879 25037 ft 464 kts 291°
2026-05-07 07:01 26.38425 50.09538 25233 ft 466 kts 291°
2026-05-07 07:02 26.39636 50.06183 25426 ft 467 kts 291°
2026-05-07 07:02 26.40847 50.02816 25619 ft 469 kts 291°
2026-05-07 07:02 26.42059 49.99432 25810 ft 470 kts 291°
2026-05-07 07:02 26.43273 49.96041 25999 ft 472 kts 291°
2026-05-07 07:03 26.44491 49.92634 26187 ft 474 kts 291°
2026-05-07 07:03 26.45713 49.89210 26373 ft 475 kts 291°
2026-05-07 07:03 26.46937 49.85781 26557 ft 477 kts 291°
2026-05-07 07:03 26.48166 49.82336 26743 ft 479 kts 291°
2026-05-07 07:04 26.49372 49.78868 26921 ft 480 kts 289°
2026-05-07 07:04 26.50380 49.75307 27107 ft 482 kts 287°
2026-05-07 07:04 26.51333 49.71716 27295 ft 483 kts 286°
2026-05-07 07:04 26.52259 49.68107 27481 ft 485 kts 285°
2026-05-07 07:05 26.53173 49.64477 27670 ft 486 kts 285°
2026-05-07 07:05 26.54085 49.60830 27854 ft 488 kts 285°
2026-05-07 07:05 26.54999 49.57173 28041 ft 490 kts 285°
2026-05-07 07:05 26.55917 49.53503 28226 ft 491 kts 285°
2026-05-07 07:06 26.56840 49.49822 28403 ft 493 kts 285°
2026-05-07 07:06 26.57766 49.46127 28573 ft 495 kts 285°
2026-05-07 07:06 26.58381 49.43674 28683 ft 496 kts 285°
2026-05-07 07:06 26.59628 49.38702 28898 ft 498 kts 285°
2026-05-07 07:07 26.60245 49.36239 29000 ft 499 kts 285°
2026-05-07 07:07 26.61180 49.32500 29152 ft 500 kts 285°
2026-05-07 07:07 26.62117 49.28750 29298 ft 501 kts 285°
2026-05-07 07:07 26.63055 49.24992 29439 ft 503 kts 285°
2026-05-07 07:08 26.64298 49.20002 29620 ft 505 kts 285°
2026-05-07 07:08 26.65240 49.16216 29752 ft 506 kts 285°
2026-05-07 07:08 26.66182 49.12425 29879 ft 507 kts 285°
2026-05-07 07:08 26.66819 49.09858 29963 ft 508 kts 285°
2026-05-07 07:09 26.67764 49.06049 30084 ft 509 kts 285°
2026-05-07 07:09 26.68710 49.02229 30201 ft 510 kts 285°
2026-05-07 07:09 26.69656 48.98402 30314 ft 511 kts 285°
2026-05-07 07:09 26.70603 48.94570 30424 ft 512 kts 285°
2026-05-07 07:10 26.71552 48.90726 30530 ft 513 kts 285°
2026-05-07 07:10 26.72501 48.86873 30634 ft 514 kts 285°
2026-05-07 07:10 26.74389 48.79196 30830 ft 516 kts 285°
2026-05-07 07:11 26.76114 48.71391 30999 ft 518 kts 278°
2026-05-07 07:11 26.76414 48.63346 31162 ft 519 kts 269°
2026-05-07 07:12 26.76237 48.55265 31314 ft 520 kts 268°
2026-05-07 07:12 26.75977 48.47161 31454 ft 522 kts 268°
2026-05-07 07:13 26.75729 48.39037 31583 ft 523 kts 268°
2026-05-07 07:13 26.75500 48.30904 31701 ft 524 kts 268°
2026-05-07 07:14 26.75273 48.22739 31810 ft 525 kts 268°
2026-05-07 07:14 26.75039 48.14562 31909 ft 526 kts 268°
2026-05-07 07:15 26.74799 48.06370 32001 ft 527 kts 268°
2026-05-07 07:15 26.74555 47.98168 32086 ft 528 kts 268°
2026-05-07 07:16 26.74315 47.89953 32158 ft 529 kts 269°
2026-05-07 07:16 26.74576 47.81729 32225 ft 530 kts 272°
2026-05-07 07:17 26.74979 47.73495 32291 ft 530 kts 273°
2026-05-07 07:17 26.75403 47.65255 32352 ft 531 kts 273°
2026-05-07 07:18 26.75818 47.57011 32407 ft 531 kts 273°
2026-05-07 07:18 26.76222 47.48752 32458 ft 532 kts 273°
2026-05-07 07:19 26.76620 47.40487 32505 ft 532 kts 272°
2026-05-07 07:19 26.77576 47.32325 32538 ft 533 kts 279°
2026-05-07 07:20 26.78808 47.24148 32578 ft 533 kts 279°
2026-05-07 07:20 26.80083 47.15971 32616 ft 534 kts 279°
2026-05-07 07:21 26.81350 47.07781 32650 ft 534 kts 279°
2026-05-07 07:21 26.82603 46.99588 32682 ft 534 kts 279°
2026-05-07 07:22 26.83847 46.91391 32712 ft 534 kts 279°
2026-05-07 07:22 26.85088 46.83184 32739 ft 535 kts 279°
2026-05-07 07:23 26.86326 46.74969 32763 ft 535 kts 279°
2026-05-07 07:23 26.87559 46.66751 32786 ft 535 kts 279°
2026-05-07 07:24 26.88788 46.58530 32807 ft 535 kts 279°
2026-05-07 07:24 26.90012 46.50304 32828 ft 535 kts 279°
2026-05-07 07:25 26.91841 46.37954 32855 ft 536 kts 279°
2026-05-07 07:26 26.93061 46.29722 32871 ft 536 kts 279°
2026-05-07 07:26 26.94278 46.21481 32887 ft 536 kts 279°
2026-05-07 07:27 26.95490 46.13239 32901 ft 536 kts 279°
2026-05-07 07:27 26.96689 46.05046 32915 ft 536 kts 279°
2026-05-07 07:28 26.97892 45.96795 32927 ft 536 kts 279°
2026-05-07 07:28 26.99089 45.88545 32939 ft 536 kts 279°
2026-05-07 07:29 27.00282 45.80291 32950 ft 536 kts 279°
2026-05-07 07:29 27.01471 45.72033 32959 ft 537 kts 279°
2026-05-07 07:30 27.02655 45.63769 32969 ft 537 kts 279°
2026-05-07 07:30 27.03835 45.55504 32978 ft 537 kts 279°
2026-05-07 07:31 27.05015 45.47238 32987 ft 537 kts 279°
2026-05-07 07:31 27.06125 45.38962 32994 ft 537 kts 277°
2026-05-07 07:32 27.07024 45.30649 33002 ft 537 kts 276°
2026-05-07 07:32 27.07897 45.22331 33010 ft 537 kts 276°
2026-05-07 07:33 27.08797 45.14017 33017 ft 537 kts 277°
2026-05-07 07:33 27.09711 45.05700 33024 ft 537 kts 277°
2026-05-07 07:34 27.10624 44.97389 33030 ft 537 kts 277°
2026-05-07 07:34 27.11532 44.89067 33037 ft 537 kts 277°
2026-05-07 07:35 27.12434 44.80751 33043 ft 537 kts 276°
2026-05-07 07:35 27.13331 44.72427 33049 ft 537 kts 276°
2026-05-07 07:36 27.14227 44.64109 33054 ft 537 kts 276°
2026-05-07 07:36 27.15113 44.55783 33059 ft 537 kts 276°
2026-05-07 07:37 27.15996 44.47455 33065 ft 537 kts 276°
2026-05-07 07:37 27.16873 44.39131 33071 ft 537 kts 276°
2026-05-07 07:38 27.17748 44.30800 33076 ft 537 kts 276°
2026-05-07 07:38 27.18607 44.22469 33080 ft 537 kts 276°
2026-05-07 07:39 27.19460 44.14137 33086 ft 537 kts 276°
2026-05-07 07:39 27.20310 44.05801 33090 ft 537 kts 276°
2026-05-07 07:40 27.21151 43.97523 33094 ft 537 kts 276°
2026-05-07 07:40 27.21993 43.89184 33098 ft 537 kts 276°
2026-05-07 07:41 27.22830 43.80843 33102 ft 537 kts 276°
2026-05-07 07:41 27.23662 43.72507 33106 ft 537 kts 276°
2026-05-07 07:42 27.24494 43.64168 33110 ft 537 kts 276°
2026-05-07 07:42 27.25318 43.55826 33115 ft 537 kts 276°
2026-05-07 07:43 27.26136 43.47477 33120 ft 537 kts 276°
2026-05-07 07:43 27.26950 43.39135 33125 ft 537 kts 276°
2026-05-07 07:44 27.27760 43.30784 33128 ft 537 kts 276°
2026-05-07 07:44 27.28565 43.22435 33132 ft 537 kts 276°
2026-05-07 07:45 27.29365 43.14084 33136 ft 537 kts 276°
2026-05-07 07:45 27.30160 43.05738 33139 ft 537 kts 276°
2026-05-07 07:46 27.30950 42.97384 33143 ft 537 kts 276°
2026-05-07 07:46 27.31735 42.89030 33149 ft 537 kts 276°
2026-05-07 07:47 27.32515 42.80679 33156 ft 537 kts 276°
2026-05-07 07:47 27.33290 42.72324 33156 ft 537 kts 276°
2026-05-07 07:48 27.34060 42.63969 33160 ft 537 kts 276°
2026-05-07 07:48 27.34825 42.55610 33163 ft 537 kts 276°
2026-05-07 07:49 27.35581 42.47302 33167 ft 537 kts 275°
2026-05-07 07:49 27.36344 42.38887 33170 ft 537 kts 275°
2026-05-07 07:50 27.37089 42.30586 33174 ft 537 kts 275°
2026-05-07 07:50 27.37832 42.22218 33177 ft 537 kts 275°
2026-05-07 07:51 27.38570 42.13856 33180 ft 537 kts 275°
2026-05-07 07:51 27.39305 42.05494 33184 ft 537 kts 275°
2026-05-07 07:52 27.40035 41.97125 33187 ft 537 kts 275°
2026-05-07 07:52 27.40759 41.88758 33191 ft 537 kts 275°
2026-05-07 07:53 27.41479 41.80393 33195 ft 537 kts 275°
2026-05-07 07:53 27.42341 41.72043 33186 ft 537 kts 281°
2026-05-07 07:54 27.44909 41.64171 33184 ft 538 kts 298°
2026-05-07 07:54 27.48725 41.56922 33187 ft 538 kts 302°
2026-05-07 07:55 27.52731 41.49801 33197 ft 538 kts 302°
2026-05-07 07:55 27.56739 41.42678 33203 ft 538 kts 302°
2026-05-07 07:56 27.60717 41.35529 33210 ft 538 kts 302°
2026-05-07 07:56 27.63991 41.29610 33691 ft 528 kts 301°
2026-05-07 07:56 27.65906 41.26141 34293 ft 516 kts 301°
2026-05-07 07:57 27.67782 41.22740 34899 ft 504 kts 301°
2026-05-07 07:57 27.69610 41.19424 35504 ft 492 kts 301°
2026-05-07 07:57 27.71397 41.16180 36109 ft 480 kts 301°
2026-05-07 07:57 27.73135 41.13023 36711 ft 468 kts 301°
2026-05-07 07:58 27.74827 41.09947 37315 ft 455 kts 301°
2026-05-07 07:58 27.76477 41.06945 37806 ft 445 kts 301°
2026-05-07 07:58 27.78092 41.04007 38188 ft 436 kts 301°
2026-05-07 07:58 27.79680 41.01122 38450 ft 431 kts 301°
2026-05-07 07:59 27.81261 40.98243 38515 ft 431 kts 301°
2026-05-07 07:59 27.84411 40.92486 38549 ft 432 kts 301°
2026-05-07 08:00 27.87571 40.86709 38575 ft 433 kts 301°
2026-05-07 08:00 27.90740 40.80911 38625 ft 433 kts 301°
2026-05-07 08:00 27.92319 40.78020 38744 ft 431 kts 301°
2026-05-07 08:01 27.93887 40.75148 38870 ft 428 kts 301°
2026-05-07 08:01 27.97000 40.69439 39018 ft 426 kts 301°
2026-05-07 08:02 28.00104 40.63738 39040 ft 426 kts 301°
2026-05-07 08:02 28.03214 40.58019 39056 ft 427 kts 301°
2026-05-07 08:03 28.06305 40.52327 39072 ft 427 kts 301°
2026-05-07 08:03 28.09418 40.46588 39085 ft 428 kts 301°
2026-05-07 08:04 28.12534 40.40835 39100 ft 429 kts 301°
2026-05-07 08:04 28.15655 40.35065 39115 ft 430 kts 301°
2026-05-07 08:05 28.18778 40.29283 39119 ft 430 kts 301°
2026-05-07 08:05 28.21903 40.23490 39117 ft 431 kts 301°
2026-05-07 08:06 28.25037 40.17672 39118 ft 432 kts 301°
2026-05-07 08:06 28.28171 40.11846 39118 ft 433 kts 301°
2026-05-07 08:07 28.31589 40.06207 39119 ft 434 kts 307°
2026-05-07 08:07 28.35343 40.00825 39118 ft 435 kts 308°
2026-05-07 08:08 28.39159 39.95476 39118 ft 436 kts 309°
2026-05-07 08:08 28.42982 39.90118 39118 ft 437 kts 308°
2026-05-07 08:09 28.46806 39.84737 39118 ft 438 kts 308°
2026-05-07 08:09 28.50631 39.79339 39118 ft 439 kts 308°
2026-05-07 08:10 28.54462 39.73924 39118 ft 440 kts 308°
2026-05-07 08:10 28.58296 39.68497 39118 ft 440 kts 308°
2026-05-07 08:11 28.62133 39.63060 39118 ft 441 kts 308°
2026-05-07 08:11 28.65962 39.57627 38957 ft 434 kts 308°
2026-05-07 08:11 28.67851 39.54945 38409 ft 435 kts 308°
2026-05-07 08:12 28.69766 39.52223 38062 ft 444 kts 308°
2026-05-07 08:12 28.73648 39.46700 37998 ft 448 kts 308°
2026-05-07 08:13 28.77554 39.41137 37999 ft 451 kts 308°
2026-05-07 08:13 28.81479 39.35540 37999 ft 453 kts 308°
2026-05-07 08:14 28.85423 39.29907 37999 ft 455 kts 308°
2026-05-07 08:14 28.89357 39.24280 37999 ft 458 kts 308°
2026-05-07 08:15 28.93330 39.18591 38000 ft 460 kts 308°
2026-05-07 08:15 28.97326 39.12861 38000 ft 462 kts 308°
2026-05-07 08:16 29.01339 39.07098 37999 ft 464 kts 308°
2026-05-07 08:16 29.05365 39.01308 38000 ft 466 kts 308°
2026-05-07 08:17 29.08928 38.95126 38000 ft 467 kts 295°
2026-05-07 08:17 29.10840 38.88051 38000 ft 468 kts 277°
2026-05-07 08:18 29.11140 38.80623 37999 ft 469 kts 270°
2026-05-07 08:18 29.11080 38.73157 38000 ft 471 kts 269°
2026-05-07 08:19 29.10985 38.65656 37999 ft 473 kts 269°
2026-05-07 08:19 29.10918 38.58128 38000 ft 474 kts 269°
2026-05-07 08:20 29.10868 38.50568 37999 ft 476 kts 269°
2026-05-07 08:20 29.10818 38.42977 37999 ft 478 kts 269°
2026-05-07 08:21 29.10765 38.35359 38000 ft 480 kts 269°
2026-05-07 08:21 29.10705 38.27723 38000 ft 481 kts 269°
2026-05-07 08:22 29.10636 38.20050 37999 ft 483 kts 269°
2026-05-07 08:22 29.10563 38.12363 38000 ft 485 kts 269°
2026-05-07 08:23 29.10487 38.04650 38000 ft 486 kts 269°
2026-05-07 08:23 29.10407 37.96957 37999 ft 487 kts 269°
2026-05-07 08:24 29.10322 37.89199 38000 ft 489 kts 269°
2026-05-07 08:24 29.10232 37.81419 38000 ft 490 kts 269°
2026-05-07 08:25 29.10138 37.73617 38000 ft 491 kts 269°
2026-05-07 08:25 29.10039 37.65793 38000 ft 492 kts 269°
2026-05-07 08:26 29.09881 37.54030 38000 ft 494 kts 269°
2026-05-07 08:26 29.09786 37.46169 38000 ft 495 kts 269°
2026-05-07 08:27 29.09733 37.38293 38000 ft 496 kts 269°
2026-05-07 08:27 29.09680 37.30400 38000 ft 497 kts 269°
2026-05-07 08:28 29.09616 37.22490 38000 ft 498 kts 269°
2026-05-07 08:28 29.09544 37.14572 38000 ft 498 kts 269°
2026-05-07 08:29 29.09467 37.06642 38000 ft 499 kts 269°
2026-05-07 08:29 29.09385 36.98702 38000 ft 500 kts 269°
2026-05-07 08:30 29.09298 36.90747 38000 ft 501 kts 269°
2026-05-07 08:30 29.09207 36.82786 37999 ft 501 kts 269°
2026-05-07 08:31 29.09111 36.74813 38000 ft 502 kts 269°
2026-05-07 08:31 29.09010 36.66830 38000 ft 502 kts 269°
2026-05-07 08:32 29.08904 36.58838 38000 ft 503 kts 269°
2026-05-07 08:32 29.08794 36.50887 38000 ft 504 kts 269°
2026-05-07 08:33 29.08656 36.42880 38000 ft 504 kts 268°
2026-05-07 08:33 29.08429 36.34864 38000 ft 505 kts 268°
2026-05-07 08:34 29.08187 36.26852 38000 ft 505 kts 268°
2026-05-07 08:34 29.07953 36.18817 38000 ft 506 kts 268°
2026-05-07 08:35 29.07721 36.10781 38000 ft 506 kts 268°
2026-05-07 08:35 29.07487 36.02735 38000 ft 506 kts 268°
2026-05-07 08:36 29.07246 35.94688 38000 ft 507 kts 268°
2026-05-07 08:36 29.07001 35.86636 38000 ft 507 kts 268°
2026-05-07 08:37 29.06750 35.78577 38000 ft 508 kts 268°
2026-05-07 08:37 29.06494 35.70506 38000 ft 508 kts 268°
2026-05-07 08:38 29.06234 35.62442 38000 ft 508 kts 268°
2026-05-07 08:38 29.05968 35.54366 38000 ft 509 kts 268°
2026-05-07 08:39 29.05697 35.46289 38000 ft 509 kts 268°
2026-05-07 08:39 29.05422 35.38202 38000 ft 509 kts 268°
2026-05-07 08:40 29.05141 35.30117 38000 ft 509 kts 267°
2026-05-07 08:40 29.04855 35.22023 38000 ft 511 kts 267°
2026-05-07 08:41 29.04564 35.13906 38000 ft 511 kts 267°
2026-05-07 08:41 29.04269 35.05839 38000 ft 511 kts 267°
2026-05-07 08:42 29.03968 34.97716 38000 ft 512 kts 267°
2026-05-07 08:42 29.03661 34.89596 38000 ft 512 kts 267°
2026-05-07 08:43 29.03368 34.81467 38000 ft 512 kts 268°
2026-05-07 08:43 29.03238 34.73341 38000 ft 512 kts 269°
2026-05-07 08:44 29.03910 34.65278 38002 ft 512 kts 285°
2026-05-07 08:44 29.05978 34.57485 38000 ft 512 kts 288°
2026-05-07 08:45 29.08266 34.49772 37999 ft 512 kts 289°
2026-05-07 08:45 29.10180 34.43371 38000 ft 512 kts 288°
2026-05-07 08:46 29.12460 34.35643 38000 ft 513 kts 288°
2026-05-07 08:46 29.14719 34.27908 38000 ft 513 kts 288°
2026-05-07 08:47 29.16968 34.20168 38000 ft 513 kts 288°
2026-05-07 08:47 29.19213 34.12423 38000 ft 513 kts 288°
2026-05-07 08:48 29.21456 34.04672 37999 ft 513 kts 288°
2026-05-07 08:48 29.23695 33.96919 38000 ft 513 kts 288°
2026-05-07 08:49 29.25933 33.89164 38000 ft 513 kts 288°
2026-05-07 08:49 29.28163 33.81404 38000 ft 513 kts 288°
2026-05-07 08:50 29.30390 33.73633 38000 ft 513 kts 288°
2026-05-07 08:50 29.32613 33.65861 38000 ft 513 kts 288°
2026-05-07 08:51 29.34831 33.58090 38000 ft 513 kts 288°
2026-05-07 08:51 29.37046 33.50311 38000 ft 513 kts 288°
2026-05-07 08:52 29.38150 33.46428 37850 ft 510 kts 288°
2026-05-07 08:52 29.39247 33.42563 37051 ft 511 kts 288°
2026-05-07 08:52 29.40350 33.38671 36051 ft 518 kts 288°
2026-05-07 08:52 29.41478 33.34688 35310 ft 532 kts 288°
2026-05-07 08:53 29.42631 33.30607 34615 ft 542 kts 288°
2026-05-07 08:53 29.43796 33.26484 33928 ft 545 kts 288°
2026-05-07 08:53 29.44964 33.22342 33246 ft 546 kts 288°
2026-05-07 08:53 29.46133 33.18192 32565 ft 545 kts 288°
2026-05-07 08:54 29.47294 33.14066 31889 ft 541 kts 288°
2026-05-07 08:54 29.48443 33.09976 31217 ft 535 kts 288°
2026-05-07 08:54 29.49575 33.05943 30546 ft 528 kts 287°
2026-05-07 08:54 29.50694 33.01948 29874 ft 522 kts 287°
2026-05-07 08:55 29.51797 32.98008 29203 ft 515 kts 287°
2026-05-07 08:55 29.52884 32.94119 28533 ft 509 kts 287°
2026-05-07 08:55 29.53959 32.90264 27860 ft 503 kts 287°
2026-05-07 08:55 29.55020 32.86458 27189 ft 498 kts 287°
2026-05-07 08:56 29.56068 32.82694 26518 ft 492 kts 287°
2026-05-07 08:56 29.57102 32.78976 25847 ft 486 kts 287°
2026-05-07 08:56 29.58124 32.75293 25175 ft 481 kts 287°
2026-05-07 08:56 29.59132 32.71654 24480 ft 475 kts 287°
2026-05-07 08:57 29.60127 32.68053 23855 ft 470 kts 287°
2026-05-07 08:57 29.61102 32.64517 23412 ft 459 kts 287°
2026-05-07 08:57 29.62057 32.61052 22830 ft 452 kts 287°
2026-05-07 08:57 29.63001 32.57622 22204 ft 447 kts 287°
2026-05-07 08:58 29.63933 32.54230 21576 ft 442 kts 287°
2026-05-07 08:58 29.64839 32.50927 20960 ft 437 kts 287°
2026-05-07 08:58 29.65748 32.47615 20339 ft 432 kts 287°
2026-05-07 08:58 29.66645 32.44340 19720 ft 427 kts 287°
2026-05-07 08:59 29.67530 32.41104 19099 ft 422 kts 287°
2026-05-07 08:59 29.68406 32.37900 18478 ft 418 kts 287°
2026-05-07 08:59 29.69271 32.34731 17863 ft 413 kts 287°
2026-05-07 08:59 29.70127 32.31595 17250 ft 409 kts 287°
2026-05-07 09:00 29.70972 32.28494 16635 ft 404 kts 287°
2026-05-07 09:00 29.71809 32.25419 16016 ft 400 kts 287°
2026-05-07 09:00 29.72635 32.22383 15415 ft 396 kts 287°
2026-05-07 09:00 29.73453 32.19375 14809 ft 391 kts 287°
2026-05-07 09:01 29.74259 32.16405 14206 ft 387 kts 287°
2026-05-07 09:01 29.75057 32.13460 13596 ft 383 kts 287°
2026-05-07 09:01 29.75844 32.10552 12991 ft 379 kts 287°
2026-05-07 09:01 29.76624 32.07670 12381 ft 375 kts 287°
2026-05-07 09:02 29.77395 32.04820 11775 ft 371 kts 287°
2026-05-07 09:02 29.78156 32.02002 11167 ft 367 kts 287°
2026-05-07 09:02 29.78910 31.99208 10663 ft 361 kts 287°
2026-05-07 09:02 29.79640 31.96501 10419 ft 347 kts 287°
2026-05-07 09:03 29.80340 31.93901 10201 ft 334 kts 287°
2026-05-07 09:03 29.81014 31.91399 9996 ft 320 kts 287°
2026-05-07 09:03 29.81661 31.88996 9803 ft 308 kts 287°
2026-05-07 09:03 29.82284 31.86678 9532 ft 299 kts 287°
2026-05-07 09:04 29.82893 31.84407 9148 ft 295 kts 287°
2026-05-07 09:04 29.83496 31.82158 8737 ft 293 kts 287°
2026-05-07 09:04 29.84095 31.79924 8328 ft 290 kts 287°
2026-05-07 09:04 29.84687 31.77712 7918 ft 288 kts 287°
2026-05-07 09:05 29.85275 31.75515 7501 ft 286 kts 287°
2026-05-07 09:05 29.85855 31.73347 7210 ft 279 kts 287°
2026-05-07 09:05 29.86415 31.71253 7046 ft 268 kts 287°
2026-05-07 09:05 29.86951 31.69247 6901 ft 257 kts 287°
2026-05-07 09:06 29.87469 31.67309 6660 ft 250 kts 286°
2026-05-07 09:06 29.87977 31.65404 6350 ft 248 kts 286°
2026-05-07 09:06 29.88481 31.63511 6021 ft 246 kts 286°
2026-05-07 09:06 29.88981 31.61635 5681 ft 244 kts 286°
2026-05-07 09:07 29.89474 31.59778 5356 ft 243 kts 286°
2026-05-07 09:07 29.89967 31.57926 5035 ft 241 kts 287°
2026-05-07 09:07 29.90456 31.56098 4836 ft 234 kts 286°
2026-05-07 09:07 29.90923 31.54345 4703 ft 224 kts 286°
2026-05-07 09:08 29.91368 31.52669 4388 ft 215 kts 286°
2026-05-07 09:08 29.91802 31.51034 3832 ft 212 kts 286°
2026-05-07 09:08 29.92232 31.49406 3248 ft 212 kts 286°
2026-05-07 09:08 29.92660 31.47786 2943 ft 212 kts 286°
2026-05-07 09:09 29.93092 31.46156 2888 ft 212 kts 286°
2026-05-07 09:09 29.93522 31.44534 2888 ft 211 kts 286°
2026-05-07 09:09 29.93950 31.42917 2892 ft 211 kts 286°
2026-05-07 09:09 29.94369 31.41338 2890 ft 195 kts 286°
2026-05-07 09:10 29.94739 31.39944 2906 ft 169 kts 286°
2026-05-07 09:10 29.95057 31.38742 2907 ft 146 kts 286°
2026-05-07 09:10 29.95344 31.37656 2909 ft 140 kts 286°
2026-05-07 09:10 29.95630 31.36571 2899 ft 142 kts 286°
2026-05-07 09:11 29.95919 31.35476 2894 ft 143 kts 286°
2026-05-07 09:11 29.96209 31.34376 2894 ft 143 kts 285°
2026-05-07 09:11 29.96495 31.33290 2889 ft 143 kts 285°
2026-05-07 09:11 29.96785 31.32190 2890 ft 144 kts 286°
2026-05-07 09:12 29.97074 31.31091 2893 ft 143 kts 286°
2026-05-07 09:12 29.97365 31.29992 2887 ft 143 kts 286°
2026-05-07 09:12 29.97654 31.28898 2892 ft 143 kts 286°
2026-05-07 09:12 29.97944 31.27796 2893 ft 143 kts 286°
2026-05-07 09:13 29.98243 31.26698 2886 ft 143 kts 288°
2026-05-07 09:13 29.98784 31.25734 2894 ft 145 kts 314°
2026-05-07 09:13 29.99635 31.25122 2762 ft 151 kts 349°
2026-05-07 09:13 30.00599 31.25476 2624 ft 145 kts 36°
2026-05-07 09:14 30.01397 31.26182 2598 ft 144 kts 38°
2026-05-07 09:14 30.02186 31.26910 2596 ft 146 kts 38°
2026-05-07 09:14 30.02974 31.27643 2594 ft 146 kts 39°
2026-05-07 09:14 30.03564 31.28585 2583 ft 146 kts 70°
2026-05-07 09:15 30.03551 31.29732 2589 ft 145 kts 115°
2026-05-07 09:15 30.03055 31.30731 2590 ft 143 kts 123°
2026-05-07 09:15 30.02693 31.31797 2585 ft 146 kts 97°
2026-05-07 09:15 30.02933 31.32915 2593 ft 146 kts 57°
2026-05-07 09:16 30.03569 31.33822 2655 ft 145 kts 48°
2026-05-07 09:16 30.04252 31.34696 2636 ft 148 kts 47°
2026-05-07 09:16 30.04952 31.35596 2314 ft 153 kts 48°
2026-05-07 09:16 30.05664 31.36527 1944 ft 157 kts 49°
2026-05-07 09:17 30.06381 31.37478 1594 ft 156 kts 49°
2026-05-07 09:17 30.07095 31.38422 1263 ft 155 kts 49°
2026-05-07 09:17 30.07797 31.39351 969 ft 152 kts 49°
2026-05-07 09:17 30.08475 31.40255 737 ft 145 kts 49°
2026-05-07 09:18 30.09121 31.41113 564 ft 140 kts 49°
2026-05-07 09:18 30.09753 31.41949 421 ft 140 kts 49°
2026-05-07 09:18 30.10356 31.42745 380 ft 115 kts 49°
2026-05-07 09:18 30.10680 31.43173 379 ft 44 kts 49°
2026-05-07 09:19 30.10843 31.43392 381 ft 30 kts 49°
2026-05-07 09:19 30.11012 31.43525 380 ft 29 kts 24°
2026-05-07 09:19 30.11123 31.43580 380 ft 4 kts 23°
2026-05-07 09:20 30.11141 31.43589 380 ft 8 kts 21°
2026-05-07 09:21 30.11204 31.43585 380 ft 10 kts 336°
2026-05-07 09:21 30.11249 31.43524 381 ft 9 kts 275°
2026-05-07 09:21 30.11242 31.43447 381 ft 10 kts 281°
2026-05-07 09:21 30.11290 31.43375 381 ft 13 kts 319°
2026-05-07 09:22 30.11364 31.43301 381 ft 15 kts 319°
2026-05-07 09:22 30.11452 31.43214 381 ft 18 kts 319°
2026-05-07 09:22 30.11552 31.43114 381 ft 20 kts 319°
2026-05-07 09:22 30.11664 31.43004 381 ft 22 kts 319°
2026-05-07 09:23 30.11785 31.42883 380 ft 24 kts 319°
2026-05-07 09:23 30.11917 31.42752 380 ft 26 kts 319°
2026-05-07 09:23 30.12028 31.42641 379 ft 17 kts 319°
2026-05-07 09:23 30.12115 31.42555 380 ft 13 kts 319°
2026-05-07 09:24 30.12187 31.42482 381 ft 11 kts 310°
2026-05-07 09:24 30.12192 31.42405 381 ft 11 kts 251°
2026-05-07 09:24 30.12145 31.42326 381 ft 13 kts 230°
2026-05-07 09:24 30.12081 31.42238 381 ft 16 kts 230°
2026-05-07 09:25 30.12005 31.42136 381 ft 18 kts 229°
2026-05-07 09:25 30.11918 31.42022 381 ft 20 kts 229°
2026-05-07 09:25 30.11822 31.41895 381 ft 22 kts 229°
2026-05-07 09:25 30.11718 31.41756 381 ft 24 kts 229°
2026-05-07 09:26 30.11607 31.41607 381 ft 24 kts 229°
2026-05-07 09:26 30.11500 31.41468 381 ft 20 kts 228°
2026-05-07 09:26 30.11430 31.41375 381 ft 12 kts 229°
2026-05-07 09:26 30.11408 31.41299 381 ft 10 kts 281°
2026-05-07 09:27 30.11417 31.41211 381 ft 12 kts 251°
2026-05-07 09:27 30.11364 31.41127 381 ft 14 kts 230°
2026-05-07 09:27 30.11216 31.40929 381 ft 17 kts 229°
2026-05-07 09:28 30.11133 31.40819 381 ft 17 kts 229°
2026-05-07 09:28 30.11048 31.40707 381 ft 20 kts 229°
2026-05-07 09:28 30.10977 31.40612 380 ft 12 kts 229°
2026-05-07 09:28 30.10929 31.40541 380 ft 12 kts 242°
2026-05-07 09:29 30.10927 31.40451 380 ft 12 kts 284°
2026-05-07 09:29 30.10948 31.40370 380 ft 9 kts 287°
2026-05-07 09:29 30.10967 31.40300 380 ft 10 kts 287°
2026-05-07 09:29 30.10985 31.40243 380 ft 7 kts 303°
2026-05-07 09:30 30.11029 31.40225 380 ft 7 kts
2026-05-07 09:30 30.11045 31.40229 380 ft 0 kts 12°
2026-05-07 09:30 30.11068 31.40236 380 ft 3 kts 14°
2026-05-07 09:30 30.11071 31.40237 380 ft 0 kts 14°